Content
SEND FEEDBACK

Daily
Averages
Monthly
Summary
United States of America

POTTS JUNCTION, GUAM


Home > North America > United States > Guam
Elevation: 110 meters     Latitude: 13 33N     Longitude: 144 50E

WEATHER
 
SELECT A DAY
Number of Records: 215,809;   Date Range: 1/1/95 - 12/27/14
 
SHARE

PRINT THIS DATA

[ ← Previous Day ]
WEATHER ALMANAC - 11 JANUARY, 2014
[ Next Day → ]
[ °F ]   °C
Weather ElementAverageHighLow
Temperature26.9 °C29.4 °C (10:54 am)24.9 °C (10:54 pm)
Dewpoint22.3 °C23.9 °C (9:54 pm)21.7 °C (2:54 am)
Humidity76 %91 % (10:54 pm)63 % (2:54 pm)
Barometer1011.9 hPa1013.9 hPa (8:54 am)1010.2 hPa (2:54 pm)
Wind Speed20.4 km/h31.5 km/h (10:54 am)
Wind Gust40.7 km/h (12:54 pm)
Weather ElementAverage
Visibility16.1 km
Wind DirectionENE (57.8 °)

Weather ElementTotal
Precipitation0.51 mm
Cooling Degree Days8.8 (Base 18.3)
Growing Degree Days17.2 (Base 10)
Averaged from 23 records on 11 January, 2014
WEATHER CONDITIONS BREAKOUT
WIND DIRECTION BREAKOUT
WEATHER BY HOUR - 11 JANUARY, 2014
[ °F ]   °C
Local TimeTemperatureDewpointHumidityBarometerVisibilityWind DirectionWind SpeedGust SpeedPrecipitationEventsConditions
1:54 AM25.6 °C22.8 °C84 %1011.9 hPa16.1 kmENE (60°)13 km/hPartly Cloudy
2:54 AM25 °C21.7 °C82 %1011.2 hPa16.1 kmENE (60°)14.8 km/hClear
3:54 AM25.6 °C21.7 °C79 %1010.8 hPa16.1 kmENE (60°)18.5 km/hClear
4:54 AM25.6 °C21.7 °C79 %1011.2 hPa16.1 kmENE (60°)20.4 km/hClear
5:54 AM25.6 °C21.7 °C79 %1011.9 hPa16.1 kmENE (60°)16.7 km/hPartly Cloudy
6:54 AM25.6 °C21.7 °C79 %1012.5 hPa16.1 kmENE (60°)18.5 km/hClear
7:54 AM26.7 °C22.8 °C79 %1013.2 hPa16.1 kmENE (60°)18.5 km/hClear
8:54 AM26.7 °C22.8 °C79 %1013.9 hPa16.1 kmENE (60°)24.1 km/h0 mmScattered Clouds
9:54 AM28.3 °C21.7 °C67 %1013.5 hPa16.1 kmENE (60°)29.6 km/hScattered Clouds
10:54 AM29.4 °C22.2 °C65 %1013.2 hPa16.1 kmNE (50°)31.5 km/hMostly Cloudy
11:54 AM28.9 °C21.7 °C65 %1012.2 hPa16.1 kmENE (70°)29.6 km/hMostly Cloudy
12:54 PM29.4 °C22.2 °C65 %1011.5 hPa16.1 kmENE (60°)25.9 km/h40.7 km/hOvercast
1:54 PM29.4 °C22.2 °C65 %1010.8 hPa16.1 kmENE (60°)27.8 km/hScattered Clouds
2:54 PM29.4 °C21.7 °C63 %1010.2 hPa16.1 kmNE (50°)29.6 km/hMostly Cloudy
3:54 PM29.4 °C22.2 °C65 %1010.2 hPa16.1 kmNE (50°)25.9 km/hMostly Cloudy
4:54 PM26.7 °C22.2 °C76 %1010.5 hPa16.1 kmNE (50°)25.9 km/h0.25 mmMostly Cloudy
5:54 PM27.2 °C21.7 °C72 %1010.8 hPa16.1 kmENE (60°)18.5 km/hScattered Clouds
6:54 PM26.1 °C21.7 °C77 %1011.5 hPa16.1 kmENE (60°)20.4 km/hMostly Cloudy
7:54 PM26.1 °C22.8 °C82 %1012.2 hPa16.1 kmNE (50°)9.3 km/hScattered Clouds
8:54 PM26.1 °C22.8 °C82 %1012.5 hPa16.1 kmENE (60°)13 km/hMostly Cloudy
9:54 PM25.6 °C23.9 °C90 %1012.2 hPa16.1 kmENE (60°)14.8 km/h0.25 mmMostly Cloudy
10:54 PM24.9 °C23.3 °C91 %1011.9 hPa16.1 kmNE (40°)7.4 km/hScattered Clouds
11:54 PM26.2 °C23.3 °C84 %1011.9 hPa16.1 kmENE (70°)16.7 km/hMostly Cloudy
Hourly data recorded from PGUM, located 0 kilometers away from Potts Junction, Guam







STORIES FROM OUR PARTNERS